User: anonymous   Login
Location: Maiden_LMO
(35.5760°N, 81.2120°W)
Time: 05:11:34
(UTC-04:00)
Language:

ADEOS II - Orbit

View from above orbital plane
View from above orbital plane
View from above satellite
View from above satellite

Ground track
Ground track

The orbit data is extracted from the following two-line orbital elements,

1 27597U 02056A   16204.84061495  .00000038  00000-0  32585-4 0  9991
2 27597  98.3242 183.2465 0000989 134.4603 225.6659 14.27223120708448
Epoch (UTC): 22 July 2016 20:10:29
Eccentricity: 0.0000989
inclination: 98.3242°
perigee height: 800 km
apogee height: 802 km
right ascension of ascending node: 183.2465°
argument of perigee: 134.4603°
revolutions per day: 14.27223120
mean anomaly at epoch: 225.6659°
orbit number at epoch: 70844

The dashed part of the orbit path shows where the satellite is in the earth's shadow,  

DLR